EW5609 Weather Reports


Display with metric or nautical units.
time (UTC)temp
F
wind
direction
speed
MPH
gust
MPH
rain 1hr
in
rain 24hr
in
rain mn
in
humidity
%
barometer
mb
20260504050325 43 275 0.0 0.0 0.00 0.00 0.00 73 1010.8
20260504045759 43 275 0.0 0.0 0.00 0.00 0.00 72 1010.8
20260504045233 44 275 0.0 0.0 0.00 0.00 0.00 71 1010.8
20260504044707 44 275 0.0 0.0 0.00 0.00 0.00 71 1010.8
20260504044138 44 275 0.0 0.0 0.00 0.00 0.00 71 1010.8
20260504043622 44 275 0.0 0.0 0.00 0.00 0.00 71 1010.8
20260504043122 45 275 0.0 0.0 0.00 0.00 0.00 70 1010.8
20260504042558 45 275 0.0 0.0 0.00 0.00 0.00 70 1010.8
20260504042301 45 275 0.0 0.0 0.00 0.00 0.00 70 1010.6
20260504041755 46 275 0.0 0.0 0.00 0.00 0.00 70 1010.6
20260504041303 46 275 0.0 0.0 0.00 0.00 0.00 70 1010.6
20260504040530 46 275 0.0 0.0 0.00 0.00 0.00 70 1010.6
20260504040251 46 275 0.0 0.0 0.00 0.00 0.00 69 1010.6
20260504035528 46 275 0.0 0.0 0.00 0.00 0.00 69 1010.6
20260504035027 46 275 0.0 0.0 0.00 0.00 0.00 69 1010.8
20260504034526 47 275 0.0 0.0 0.00 0.00 0.00 69 1010.6
20260504034023 47 275 0.0 0.0 0.00 0.00 0.00 69 1010.8
20260504033518 47 275 0.0 0.0 0.00 0.00 0.00 69 1010.8
20260504033016 47 275 0.0 0.0 0.00 0.00 0.00 69 1010.8
20260504032513 47 275 0.0 0.0 0.00 0.00 0.00 69 1010.8
20260504032011 47 275 0.0 0.0 0.00 0.00 0.00 69 1010.8
20260504031511 47 275 0.0 0.0 0.00 0.00 0.00 69 1010.8
20260504031009 48 275 0.0 0.0 0.00 0.00 0.00 69 1010.6
20260504030510 48 275 0.0 0.0 0.00 0.00 0.00 68 1010.6
20260504025948 48 275 0.0 0.0 0.00 0.00 0.00 68 1010.8
20260504025444 48 275 0.0 0.0 0.00 0.00 0.00 67 1010.6
20260504024942 48 275 0.0 0.0 0.00 0.00 0.00 67 1010.8
20260504024440 49 275 0.0 0.0 0.00 0.00 0.00 66 1010.9
20260504023938 49 275 0.0 0.0 0.00 0.00 0.00 66 1010.9
20260504023438 49 275 0.0 0.0 0.00 0.00 0.00 65 1010.9
20260504022937 49 275 0.0 0.0 0.00 0.00 0.00 64 1011.0
20260504022437 49 275 0.0 0.0 0.00 0.00 0.00 63 1010.9
20260504021935 49 275 0.0 0.0 0.00 0.00 0.00 63 1010.9
20260504021434 49 275 0.0 0.0 0.00 0.00 0.00 62 1010.9
20260504020927 49 275 0.0 0.0 0.00 0.00 0.00 60 1010.9
20260504020425 49 275 0.0 0.0 0.00 0.00 0.00 60 1011.0
20260504015924 50 275 0.0 0.0 0.00 0.00 0.00 60 1010.9
20260504015417 50 275 0.0 0.0 0.00 0.00 0.00 60 1010.9
20260504014916 50 275 0.0 0.0 0.00 0.00 0.00 60 1010.8
20260504014411 50 275 0.0 0.0 0.00 0.00 0.00 60 1010.9
20260504013914 50 275 0.0 0.0 0.00 0.00 0.00 58 1010.8
20260504013550 50 275 0.0 0.0 0.00 0.00 0.00 58 1010.6
20260504013438 50 275 0.0 0.0 0.00 0.00 0.00 57 1010.8
20260504012828 50 275 0.0 0.0 0.00 0.00 0.00 58 1010.8
20260504011841 51 275 0.0 0.0 0.00 0.00 0.00 56 1010.6
20260504011341 51 275 0.0 0.0 0.00 0.00 0.00 55 1010.6
20260504010840 51 275 0.0 0.0 0.00 0.00 0.00 54 1010.5
20260504010338 52 275 0.0 0.0 0.00 0.00 0.00 54 1010.3
20260504010056 52 275 0.0 0.0 0.00 0.00 0.00 54 1010.3
20260504005334 53 275 0.0 0.0 0.00 0.00 0.00 54 1010.3
20260504004833 53 275 0.0 0.0 0.00 0.00 0.00 52 1010.3
20260504004327 53 275 0.0 0.0 0.00 0.00 0.00 51 1010.2
20260504004053 53 275 0.0 0.0 0.00 0.00 0.00 49 1010.2
20260504003550 53 275 0.0 0.0 0.00 0.00 0.00 48 1010.1
20260504002827 53 275 0.0 0.0 0.00 0.00 0.00 49 1010.1
20260504002522 54 275 0.0 0.0 0.00 0.00 0.00 50 1010.0
20260504001733 54 275 0.0 0.0 0.00 0.00 0.00 45 1009.9
20260504001205 55 275 0.0 0.0 0.00 0.00 0.00 46 1009.9
20260504000638 55 275 0.0 0.0 0.00 0.00 0.00 45 1009.8
20260504000111 55 275 0.0 0.0 0.00 0.00 0.00 45 1009.8
20260503235548 55 275 0.0 0.0 0.00 0.00 0.00 43 1009.8
20260503235022 55 275 0.0 0.0 0.00 0.00 0.00 43 1009.8
20260503234454 56 272 0.0 0.0 0.00 0.00 0.00 42 1009.6
20260503234204 56 272 0.0 4.0 0.00 0.00 0.00 42 1009.6
20260503233439 56 273 0.0 4.0 0.00 0.00 0.00 41 1009.5
20260503233138 56 289 0.0 0.0 0.00 0.00 0.00 42 1009.6
20260503232350 56 289 0.0 0.0 0.00 0.00 0.00 42 1009.6
20260503231822 56 278 0.0 0.0 0.00 0.00 0.00 43 1009.6
20260503231257 56 279 0.0 0.0 0.00 0.00 0.00 43 1009.5
20260503231001 56 281 0.0 0.0 0.00 0.00 0.00 42 1009.6
20260503230204 56 271 0.0 0.0 0.00 0.00 0.00 42 1009.6
20260503225700 56 271 0.0 0.0 0.00 0.00 0.00 42 1009.6
20260503225201 56 271 0.0 0.0 0.00 0.00 0.00 41 1009.6
20260503224658 56 272 0.0 0.0 0.00 0.00 0.00 41 1009.6
20260503224425 56 272 0.0 1.0 0.00 0.00 0.00 42 1009.7
20260503223653 56 273 0.0 2.0 0.00 0.00 0.00 41 1009.7
20260503223151 56 0 0.0 2.0 0.00 0.00 0.00 42 1009.7
20260503222911 56 274 0.0 0.0 0.00 0.00 0.00 41 1009.7
20260503222152 56 289 0.0 4.0 0.00 0.00 0.00 42 1009.7
20260503221653 56 269 0.0 4.0 0.00 0.00 0.00 42 1009.8
20260503221149 56 0 0.0 0.0 0.00 0.00 0.00 43 1009.7
20260503220648 56 0 0.0 0.0 0.00 0.00 0.00 43 1009.7
20260503220146 56 0 0.0 1.0 0.00 0.00 0.00 43 1009.8
20260503215646 56 0 0.0 2.0 0.00 0.00 0.00 43 1009.8
20260503215145 56 0 0.0 2.0 0.00 0.00 0.00 43 1009.9
20260503214643 56 0 0.0 0.0 0.00 0.00 0.00 43 1009.9
20260503214410 56 0 0.0 0.0 0.00 0.00 0.00 44 1009.9
20260503213641 56 0 0.0 0.0 0.00 0.00 0.00 43 1009.9
20260503213140 56 0 0.0 0.0 0.00 0.00 0.00 43 1009.9
20260503212640 56 294 0.0 1.0 0.00 0.00 0.00 44 1009.9
20260503212139 56 0 0.0 7.0 0.00 0.00 0.00 44 1009.9
20260503211640 56 0 0.0 7.0 0.00 0.00 0.00 44 1009.9
20260503211138 56 289 0.0 6.0 0.00 0.00 0.00 44 1009.9
20260503210637 56 296 0.0 6.0 0.00 0.00 0.00 43 1010.0
20260503210139 56 0 0.0 1.0 0.00 0.00 0.00 44 1010.0
20260503205637 56 274 0.0 7.0 0.00 0.00 0.00 43 1010.0
20260503205138 56 0 0.0 7.0 0.00 0.00 0.00 43 1009.9
20260503204635 56 293 2.0 12.0 0.00 0.00 0.00 44 1010.1
20260503204133 56 277 3.0 17.0 0.00 0.00 0.00 44 1010.2
20260503203633 56 336 2.0 17.0 0.00 0.00 0.00 44 1010.2
20260503203619 55 289 1.0 15.0 0.00 0.00 0.00 44 1010.3
20260503202632 55 286 0.0 7.0 0.00 0.00 0.00 43 1010.3
20260503202357 55 253 0.0 8.0 0.00 0.00 0.00 42 1010.2
20260503201634 56 313 1.0 8.0 0.00 0.00 0.00 42 1010.1
20260503201134 56 275 1.0 14.0 0.00 0.00 0.00 39 1010.2
20260503200634 56 284 1.0 14.0 0.00 0.00 0.00 38 1010.2
20260503200119 56 297 1.0 14.0 0.00 0.00 0.00 38 1010.1
20260503195847 56 294 1.0 14.0 0.00 0.00 0.00 38 1010.1
20260503195119 57 266 1.0 15.0 0.00 0.00 0.00 36 1010.0
20260503194620 57 0 1.0 15.0 0.00 0.00 0.00 37 1010.1
20260503194120 56 290 0.0 4.0 0.00 0.00 0.00 38 1010.2
20260503193840 56 263 1.0 12.0 0.00 0.00 0.00 36 1010.3
20260503193116 56 271 1.0 12.0 0.00 0.00 0.00 37 1010.4
20260503192615 56 271 0.0 1.0 0.00 0.00 0.00 39 1010.4
20260503192112 56 287 0.0 3.0 0.00 0.00 0.00 37 1010.4
20260503191610 56 288 0.0 4.0 0.00 0.00 0.00 37 1010.4
20260503191112 56 286 1.0 9.0 0.00 0.00 0.00 37 1010.4
20260503190605 56 254 1.0 9.0 0.00 0.00 0.00 36 1010.4
20260503185600 56 300 0.0 1.0 0.00 0.00 0.00 38 1010.6
20260503185103 56 326 0.0 0.0 0.00 0.00 0.00 37 1010.8
20260503184550 56 286 0.0 1.0 0.00 0.00 0.00 35 1010.6
20260503184314 56 250 1.0 7.0 0.00 0.00 0.00 36 1010.8
20260503183543 57 303 1.0 10.0 0.00 0.00 0.00 36 1010.8
20260503183041 57 0 0.0 10.0 0.00 0.00 0.00 37 1010.9
20260503182540 57 0 1.0 13.0 0.00 0.00 0.00 37 1011.0
20260503182258 55 277 1.0 13.0 0.00 0.00 0.00 36 1011.1
20260503181531 55 260 0.0 1.0 0.00 0.00 0.00 38 1011.1
20260503181029 55 0 0.0 9.0 0.00 0.00 0.00 37 1011.1
20260503180529 55 304 0.0 9.0 0.00 0.00 0.00 38 1011.1
20260503180259 55 309 0.0 4.0 0.00 0.00 0.00 38 1011.2
20260503175524 55 276 1.0 13.0 0.00 0.00 0.00 38 1011.3
20260503175021 55 0 1.0 13.0 0.00 0.00 0.00 37 1011.3
20260503174520 55 0 1.0 10.0 0.00 0.00 0.00 38 1011.5
20260503174014 55 269 1.0 10.0 0.00 0.00 0.00 38 1011.4
20260503173518 55 0 0.0 9.0 0.00 0.00 0.00 41 1011.5
20260503173012 54 289 0.0 9.0 0.00 0.00 0.00 41 1011.6
20260503172516 53 0 0.0 7.0 0.00 0.00 0.00 42 1011.9
20260503171959 53 296 0.0 8.0 0.00 0.00 0.00 41 1011.9
20260503171458 52 285 1.0 8.0 0.00 0.00 0.00 40 1012.0
20260503170951 53 281 1.0 13.0 0.00 0.00 0.00 39 1012.0
20260503170452 53 311 0.0 13.0 0.00 0.00 0.00 38 1012.1
20260503170220 54 262 0.0 5.0 0.00 0.00 0.00 40 1012.1
20260503150854 51 336 2.0 14.0 0.00 0.00 0.00 42 1013.0
20260503150354 51 0 1.0 14.0 0.00 0.00 0.00 39 1013.1
20260503140249 48 275 1.0 13.0 0.00 0.00 0.00 43 1013.2
20260503131240 47 280 0.0 5.0 0.00 0.00 0.00 52 1013.2
20260503130738 48 294 0.0 0.0 0.00 0.00 0.00 55 1013.2
20260503130237 47 294 0.0 0.0 0.00 0.00 0.00 57 1013.3
20260503120150 41 0 0.0 0.0 0.00 0.01 0.00 76 1013.5
20260503110659 37 300 0.0 0.0 0.00 0.01 0.00 84 1013.2
20260503090512 36 300 0.0 0.0 0.00 0.01 0.00 86 1012.4
20260503080938 36 300 0.0 0.0 0.00 0.01 0.00 86 1012.4
20260503080435 36 300 0.0 0.0 0.00 0.01 0.00 86 1012.4
20260503072857 36 300 0.0 0.0 0.00 0.01 0.00 85 1012.4
20260503072358 36 300 0.0 0.0 0.00 0.01 0.00 85 1012.4
20260503071855 36 300 0.0 0.0 0.00 0.01 0.00 84 1012.4
20260503071355 36 300 0.0 0.0 0.00 0.01 0.00 84 1012.4
20260503070854 36 300 0.0 0.0 0.00 0.01 0.00 84 1012.3
20260503070353 36 300 0.0 0.0 0.00 0.01 0.00 84 1012.4
20260503070110 36 300 0.0 0.0 0.00 0.01 0.00 83 1012.4